Date String (YYYY-MM-DD hh:mm:ss) UTC,Instrument flags,Ambient pressure (hPa),Sample flow (lpm),Bypass flow (lpm),Sample temperature (°C),Ambient temperature (°C),ASC tube jacket temperature (°C),LED temperature (°C),Box temperature (°C),Sample RH (%),Span deviation,Mass concentration (μg/m³),Mass concentration (μg/m³),Mass concentration (μg/m³)
DateTimeUTC,F1_M11,P_M11,Q1_M11,Q2_M11,T1_M11,T2_M11,T3_M11,T4_M11,T5_M11,U1_M11,ZSPAN_M11,X0_M11,X2_M11,X1_M11
2022-04-23 20:00:00,,0815.7,5.01,0.00,22.8,21.8,00.0,31.7,24.6,09.4,0000.0,0001.74,0000.45,0000.25
2022-04-23 20:01:00,,0815.7,4.99,0.00,22.8,21.9,00.0,31.7,24.6,09.5,0000.0,0001.01,0000.42,0000.26
2022-04-23 20:02:00,,0815.8,5.01,0.00,22.8,21.9,00.0,31.8,24.6,09.5,0000.0,0000.86,0000.39,0000.26
2022-04-23 20:03:00,,0815.8,5.01,0.00,22.8,21.9,00.0,31.8,24.6,09.4,0000.0,0000.84,0000.40,0000.26
2022-04-23 20:04:00,,0815.8,5.00,0.00,22.8,21.9,00.0,31.8,24.6,09.7,0000.0,0000.92,0000.42,0000.26
2022-04-23 20:05:00,,0815.8,4.99,0.00,22.8,21.9,00.0,31.8,24.6,09.7,0000.0,0000.93,0000.44,0000.26
2022-04-23 20:06:00,,0815.9,5.00,0.00,22.8,21.9,00.0,31.8,24.6,09.6,0000.0,0000.77,0000.45,0000.26
2022-04-23 20:07:00,,0815.8,5.00,0.00,22.8,21.8,00.0,31.8,24.6,09.7,0000.0,0000.79,0000.46,0000.26
2022-04-23 20:08:00,,0815.8,5.00,0.00,22.9,21.8,00.0,31.8,24.6,09.6,0000.0,0000.96,0000.45,0000.26
2022-04-23 20:09:00,,0815.7,5.00,0.00,22.9,21.9,00.0,31.8,24.7,09.6,0000.0,0001.01,0000.45,0000.26
2022-04-23 20:10:00,,0815.8,5.01,0.00,22.9,21.9,00.0,31.8,24.7,09.7,0000.0,0001.02,0000.44,0000.26
2022-04-23 20:11:00,,0815.8,5.00,0.00,22.9,21.9,00.0,31.8,24.7,09.6,0000.0,0001.06,0000.45,0000.26
2022-04-23 20:12:00,,0815.8,4.99,0.00,22.9,21.9,00.0,31.8,24.7,09.5,0000.0,0001.08,0000.45,0000.26
2022-04-23 20:13:00,,0815.7,4.99,0.00,22.9,22.0,00.0,31.8,24.7,09.4,0000.0,0001.10,0000.46,0000.26
2022-04-23 20:14:00,,0815.9,5.01,0.00,22.9,22.0,00.0,31.8,24.8,09.5,0000.0,0001.10,0000.46,0000.26
2022-04-23 20:15:00,,0815.7,4.99,0.00,22.9,22.0,00.0,31.8,24.7,09.6,0000.0,0001.96,0000.46,0000.26
2022-04-23 20:16:00,,0816.0,5.01,0.00,22.9,22.0,00.0,31.8,24.7,09.6,0000.0,0001.94,0000.46,0000.27
2022-04-23 20:17:00,,0815.7,4.99,0.00,22.9,22.0,00.0,31.8,24.7,09.5,0000.0,0001.88,0000.43,0000.26
2022-04-23 20:18:00,,0815.9,4.99,0.00,22.9,22.0,00.0,31.8,24.7,09.4,0000.0,0002.65,0000.42,0000.26
2022-04-23 20:19:00,,0815.9,5.00,0.00,22.9,22.0,00.0,31.8,24.7,09.4,0000.0,0002.60,0000.42,0000.26
2022-04-23 20:20:00,,0815.7,5.01,0.00,22.9,22.0,00.0,31.8,24.6,09.5,0000.0,0002.54,0000.43,0000.26
2022-04-23 20:21:00,,0815.8,5.01,0.00,22.9,22.0,00.0,31.8,24.7,09.1,0000.0,0002.57,0000.45,0000.27
2022-04-23 20:22:00,,0815.9,4.99,0.00,22.9,22.0,00.0,31.8,24.7,09.1,0000.0,0002.58,0000.45,0000.27
2022-04-23 20:23:00,,0815.7,4.99,0.00,22.9,22.0,00.0,31.8,24.7,09.3,0000.0,0002.64,0000.44,0000.26
2022-04-23 20:24:00,,0815.8,4.99,0.00,22.9,22.0,00.0,31.8,24.7,09.3,0000.0,0003.72,0000.45,0000.26
2022-04-23 20:25:00,,0815.7,5.02,0.00,22.9,21.9,00.0,31.8,24.7,09.2,0000.0,0003.74,0000.46,0000.26
2022-04-23 20:26:00,,0815.9,4.99,0.00,22.9,21.9,00.0,31.8,24.8,09.0,0000.0,0002.95,0000.45,0000.25
2022-04-23 20:27:00,,0815.8,4.99,0.00,22.9,21.9,00.0,31.8,24.8,09.0,0000.0,0002.82,0000.43,0000.25
2022-04-23 20:28:00,,0815.9,5.02,0.00,22.9,21.9,00.0,31.8,24.7,09.1,0000.0,0002.91,0000.46,0000.25
2022-04-23 20:29:00,,0815.9,5.00,0.00,22.9,21.9,00.0,31.8,24.7,09.3,0000.0,0002.27,0000.48,0000.25
2022-04-23 20:30:00,,0816.0,4.99,0.00,22.9,21.9,00.0,31.8,24.7,09.3,0000.0,0002.20,0000.49,0000.25
2022-04-23 20:31:00,,0816.1,4.99,0.00,22.8,21.9,00.0,31.8,24.6,08.8,0000.0,0002.20,0000.48,0000.24
2022-04-23 20:32:00,,0816.1,5.00,0.00,22.8,21.9,00.0,31.8,24.6,08.8,0000.0,0002.86,0000.46,0000.24
2022-04-23 20:33:00,,0816.2,5.00,0.00,22.9,21.9,00.0,31.8,24.7,08.9,0000.0,0002.86,0000.46,0000.23
2022-04-23 20:34:00,,0816.3,5.00,0.00,22.8,21.9,00.0,31.8,24.7,09.0,0000.0,0002.73,0000.47,0000.23
2022-04-23 20:35:00,,0816.0,5.01,0.00,22.8,22.0,00.0,31.8,24.7,09.2,0000.0,0001.74,0000.47,0000.24
2022-04-23 20:36:00,,0816.1,5.00,0.00,22.8,21.9,00.0,31.8,24.7,09.0,0000.0,0001.78,0000.47,0000.24
2022-04-23 20:37:00,,0816.1,5.00,0.00,22.8,22.0,00.0,31.8,24.7,09.2,0000.0,0001.72,0000.45,0000.23
2022-04-23 20:38:00,,0816.1,5.00,0.00,22.8,22.0,00.0,31.8,24.6,09.0,0000.0,0002.08,0000.45,0000.23
2022-04-23 20:39:00,,0816.2,4.99,0.00,22.8,22.0,00.0,31.8,24.6,08.9,0000.0,0002.23,0000.43,0000.24
2022-04-23 20:40:00,,0816.1,4.99,0.00,22.8,22.0,00.0,31.8,24.6,08.9,0000.0,0002.21,0000.43,0000.24
2022-04-23 20:41:00,,0816.3,5.00,0.00,22.8,22.0,00.0,31.8,24.6,08.8,0000.0,0002.13,0000.43,0000.24
2022-04-23 20:42:00,,0816.3,5.02,0.00,22.8,22.0,00.0,31.8,24.6,08.9,0000.0,0002.06,0000.42,0000.24
2022-04-23 20:43:00,,0816.1,5.00,0.00,22.8,22.0,00.0,31.8,24.6,09.0,0000.0,0001.47,0000.44,0000.24
2022-04-23 20:44:00,,0816.2,4.99,0.00,22.8,22.0,00.0,31.8,24.6,08.9,0000.0,0001.55,0000.44,0000.24
2022-04-23 20:45:00,,0816.2,4.99,0.00,22.8,22.0,00.0,31.8,24.6,08.9,0000.0,0001.59,0000.46,0000.25
2022-04-23 20:46:00,,0816.2,5.00,0.00,22.9,22.0,00.0,31.8,24.6,09.1,0000.0,0001.62,0000.46,0000.26
2022-04-23 20:47:00,,0816.2,5.01,0.00,22.9,22.0,00.0,31.8,24.7,09.3,0000.0,0001.49,0000.43,0000.26
2022-04-23 20:48:00,,0816.0,5.01,0.00,22.9,22.0,00.0,31.8,24.7,09.3,0000.0,0002.07,0000.43,0000.26
2022-04-23 20:49:00,,0816.1,4.99,0.00,22.8,22.0,00.0,31.8,24.7,08.9,0000.0,0001.78,0000.43,0000.26
2022-04-23 20:50:00,,0816.3,4.99,0.00,22.9,22.0,00.0,31.8,24.7,09.1,0000.0,0001.47,0000.41,0000.26
2022-04-23 20:51:00,,0816.4,4.99,0.00,22.8,22.0,00.0,31.8,24.7,08.9,0000.0,0001.46,0000.41,0000.26
2022-04-23 20:52:00,,0816.4,4.99,0.00,22.8,22.1,00.0,31.8,24.7,08.8,0000.0,0001.49,0000.43,0000.26
2022-04-23 20:53:00,,0816.4,5.00,0.00,22.9,22.0,00.0,31.8,24.7,08.8,0000.0,0001.59,0000.46,0000.27
2022-04-23 20:54:00,,0816.5,5.01,0.00,22.9,22.1,00.0,31.8,24.7,08.8,0000.0,0001.62,0000.48,0000.27
2022-04-23 20:55:00,,0816.5,5.01,0.00,22.9,22.1,00.0,31.9,24.7,08.8,0000.0,0001.50,0000.47,0000.28
2022-04-23 20:56:00,,0816.4,5.00,0.00,22.9,22.0,00.0,31.9,24.7,08.8,0000.0,0001.46,0000.44,0000.27
2022-04-23 20:57:00,,0816.5,4.99,0.00,22.9,22.0,00.0,31.9,24.7,08.9,0000.0,0001.51,0000.43,0000.26
2022-04-23 20:58:00,,0816.5,4.99,0.00,23.0,22.0,00.0,31.9,24.8,08.9,0000.0,0001.71,0000.43,0000.26
2022-04-23 20:59:00,,0816.5,5.00,0.00,23.0,22.0,00.0,31.9,24.8,08.8,0000.0,0001.52,0000.43,0000.26
